Location: Le Gr�zie
(43.6000°N, 13.5000°E)
Time: 00:54:28
(UTC+00:00)

STARLINK-1244 - Pass Details

Date: 09 April 2020
Orbit: 549 x 550 km, 53.0° (Epoch: 02 June)

Event Time Altitude Azimuth Distance (km) Brightness Sun altitude
Rises 19:51:37 0° 305° (NW) 2,727 8.7 -22.0°
Reaches altitude 10° 19:53:52 10° 309° (NW) 1,831 7.4 -22.4°
Maximum altitude 19:58:00 65° 31° (NNE) 610 3.7 -23.0°
Enters shadow 19:58:02 65° 33° (NNE) 610 3.7 -23.0°
